| time (UTC) | temp F | wind direction | speed knots | gust knots | rain 1hr in | rain 24hr in | rain mn in | humidity % | barometer mb |
| 20260506201946 | 0 | 349 | 0.0 | 1.7 | 0.04 | 0.52 | 0.34 | ||
| 20260506201432 | 0 | 8 | 0.0 | 1.7 | 0.04 | 0.52 | 0.34 | ||
| 20260506200939 | 0 | 10 | 0.0 | 0.0 | 0.04 | 0.72 | 0.34 | ||
| 20260506200446 | 0 | 10 | 0.0 | 0.0 | 0.05 | 0.72 | 0.34 | ||
| 20260506195949 | 0 | 10 | 0.0 | 0.0 | 0.04 | 0.71 | 0.33 | ||
| 20260506195434 | 0 | 10 | 0.0 | 0.0 | 0.04 | 0.71 | 0.33 | ||
| 20260506194942 | 0 | 10 | 0.0 | 3.5 | 0.03 | 0.70 | 0.32 | ||
| 20260506194428 | 0 | 323 | 0.9 | 3.5 | 0.04 | 0.70 | 0.32 | ||
| 20260506193955 | 0 | 348 | 0.0 | 0.9 | 0.04 | 0.70 | 0.32 | ||
| 20260506193441 | 0 | 348 | 0.0 | 0.0 | 0.04 | 0.70 | 0.32 | ||
| 20260506192929 | 0 | 4 | 0.0 | 0.0 | 0.03 | 0.69 | 0.31 | ||
| 20260506192437 | 0 | 14 | 0.0 | 0.0 | 0.03 | 0.69 | 0.31 | ||
| 20260506191944 | 0 | 14 | 0.0 | 0.0 | 0.02 | 0.68 | 0.30 | ||
| 20260506191432 | 0 | 14 | 0.0 | 0.0 | 0.02 | 0.68 | 0.30 | ||
| 20260506191007 | 0 | 16 | 0.0 | 0.0 | 0.02 | 0.80 | 0.30 | ||
| 20260506190432 | 0 | 16 | 0.0 | 0.0 | 0.01 | 0.79 | 0.29 | ||
| 20260506190007 | 0 | 17 | 0.0 | 0.0 | 0.01 | 0.79 | 0.29 | ||
| 20260506185433 | 0 | 17 | 0.0 | 0.0 | 0.01 | 0.79 | 0.29 | ||
| 20260506184940 | 0 | 17 | 0.0 | 0.0 | 0.01 | 0.79 | 0.29 | ||
| 20260506184431 | 0 | 17 | 0.0 | 0.0 | 0.00 | 0.78 | 0.28 | ||
| 20260506183934 | 0 | 18 | 0.0 | 0.0 | 0.00 | 0.78 | 0.28 | ||
| 20260506183442 | 0 | 23 | 0.0 | 0.0 | 0.00 | 0.78 | 0.28 | ||
| 20260506182929 | 0 | 23 | 0.0 | 0.0 | 0.00 | 0.78 | 0.28 | ||
| 20260506182438 | 0 | 24 | 0.0 | 0.0 | 0.00 | 0.78 | 0.28 | ||
| 20260506181925 | 0 | 24 | 0.0 | 0.0 | 0.01 | 0.78 | 0.28 | ||
| 20260506181431 | 0 | 24 | 0.0 | 0.0 | 0.01 | 0.78 | 0.28 | ||
| 20260506180958 | 0 | 24 | 0.0 | 0.0 | 0.01 | 0.82 | 0.28 | ||
| 20260506180443 | 0 | 25 | 0.0 | 0.0 | 0.02 | 0.82 | 0.28 | ||
| 20260506175931 | 0 | 25 | 0.0 | 0.0 | 0.02 | 0.82 | 0.28 | ||
| 20260506175438 | 0 | 25 | 0.0 | 0.0 | 0.02 | 0.82 | 0.28 | ||
| 20260506174945 | 0 | 25 | 0.0 | 0.0 | 0.03 | 0.82 | 0.28 | ||
| 20260506174434 | 0 | 31 | 0.0 | 0.0 | 0.03 | 0.82 | 0.28 | ||
| 20260506173940 | 0 | 31 | 0.0 | 0.0 | 0.04 | 0.82 | 0.28 | ||
| 20260506173428 | 0 | 31 | 0.0 | 0.0 | 0.04 | 0.82 | 0.28 | ||
| 20260506172935 | 0 | 31 | 0.0 | 2.6 | 0.05 | 0.82 | 0.28 | ||
| 20260506172442 | 0 | 31 | 0.0 | 2.6 | 0.06 | 0.82 | 0.28 | ||
| 20260506171930 | 0 | 35 | 0.0 | 0.0 | 0.05 | 0.81 | 0.27 | ||
| 20260506171436 | 0 | 35 | 0.0 | 0.0 | 0.06 | 0.81 | 0.27 | ||
| 20260506170939 | 0 | 35 | 0.0 | 0.0 | 0.07 | 0.81 | 0.27 | ||
| 20260506170427 | 0 | 36 | 0.0 | 0.0 | 0.06 | 0.80 | 0.26 | ||
| 20260506165935 | 0 | 36 | 0.0 | 0.0 | 0.07 | 0.80 | 0.26 | ||
| 20260506165502 | 0 | 35 | 0.0 | 0.0 | 0.08 | 0.80 | 0.26 | ||
| 20260506164927 | 0 | 35 | 0.0 | 1.7 | 0.07 | 0.79 | 0.25 | ||
| 20260506164434 | 0 | 35 | 0.0 | 1.7 | 0.08 | 0.79 | 0.25 | ||
| 20260506163941 | 0 | 35 | 0.0 | 1.7 | 0.07 | 0.78 | 0.24 | ||
| 20260506163429 | 0 | 29 | 0.0 | 4.3 | 0.08 | 0.78 | 0.24 | ||
| 20260506163002 | 0 | 27 | 0.9 | 4.3 | 0.07 | 0.77 | 0.23 | ||
| 20260506162428 | 0 | 29 | 0.9 | 3.5 | 0.07 | 0.76 | 0.22 | ||
| 20260506161935 | 0 | 10 | 1.7 | 5.2 | 0.07 | 0.76 | 0.22 | ||
| 20260506161443 | 0 | 37 | 2.6 | 5.2 | 0.06 | 0.75 | 0.21 | ||
| 20260506160929 | 0 | 31 | 2.6 | 4.3 | 0.05 | 0.74 | 0.20 | ||
| 20260506160436 | 0 | 33 | 0.0 | 3.5 | 0.05 | 0.74 | 0.20 | ||
| 20260506160004 | 0 | 31 | 0.9 | 4.3 | 0.04 | 0.73 | 0.19 | ||
| 20260506155428 | 0 | 31 | 1.7 | 4.3 | 0.03 | 0.72 | 0.18 | ||
| 20260506154931 | 0 | 28 | 0.0 | 5.2 | 0.03 | 0.72 | 0.18 | ||
| 20260506154438 | 0 | 345 | 2.6 | 5.2 | 0.02 | 0.71 | 0.17 | ||
| 20260506154003 | 0 | 27 | 0.0 | 2.6 | 0.02 | 0.71 | 0.17 | ||
| 20260506153428 | 0 | 81 | 0.0 | 2.6 | 0.02 | 0.70 | 0.16 | ||
| 20260506152934 | 0 | 27 | 0.0 | 4.3 | 0.02 | 0.70 | 0.16 | ||
| 20260506152443 | 0 | 29 | 2.6 | 5.2 | 0.01 | 0.69 | 0.15 | ||
| 20260506151950 | 0 | 29 | 2.6 | 5.2 | 0.01 | 0.69 | 0.15 | ||
| 20260506151439 | 0 | 359 | 1.7 | 3.5 | 0.02 | 0.69 | 0.15 | ||
| 20260506150924 | 0 | 333 | 0.0 | 3.5 | 0.02 | 0.69 | 0.15 | ||
| 20260506150456 | 0 | 258 | 0.0 | 0.0 | 0.03 | 0.69 | 0.15 | ||
| 20260506145922 | 0 | 258 | 0.0 | 0.9 | 0.03 | 0.69 | 0.15 | ||
| 20260506145434 | 0 | 258 | 0.0 | 3.5 | 0.04 | 0.69 | 0.15 | ||
| 20260506144939 | 0 | 258 | 0.0 | 3.5 | 0.05 | 0.69 | 0.15 | ||
| 20260506144429 | 0 | 260 | 0.0 | 3.5 | 0.05 | 0.69 | 0.15 | ||
| 20260506143933 | 0 | 119 | 0.0 | 0.0 | 0.06 | 0.69 | 0.15 | ||
| 20260506143440 | 0 | 106 | 0.0 | 0.0 | 0.06 | 0.68 | 0.14 | ||
| 20260506142925 | 0 | 106 | 0.0 | 0.0 | 0.06 | 0.68 | 0.14 | ||
| 20260506142434 | 0 | 106 | 0.0 | 0.0 | 0.07 | 0.68 | 0.14 | ||
| 20260506141942 | 0 | 106 | 0.0 | 0.0 | 0.07 | 0.68 | 0.14 | ||
| 20260506141430 | 0 | 106 | 0.0 | 0.0 | 0.07 | 0.67 | 0.13 | ||
| 20260506140935 | 0 | 106 | 0.0 | 0.0 | 0.06 | 0.66 | 0.12 | ||
| 20260506140443 | 0 | 106 | 0.0 | 0.0 | 0.06 | 0.66 | 0.12 | ||
| 20260506135949 | 0 | 106 | 0.0 | 0.0 | 0.06 | 0.66 | 0.12 | ||
| 20260506135436 | 0 | 106 | 0.0 | 0.0 | 0.05 | 0.65 | 0.11 | ||
| 20260506134942 | 0 | 103 | 0.0 | 0.0 | 0.04 | 0.64 | 0.10 | ||
| 20260506134429 | 0 | 49 | 0.0 | 0.0 | 0.04 | 0.64 | 0.10 | ||
| 20260506133934 | 0 | 49 | 0.0 | 0.0 | 0.03 | 0.63 | 0.09 | ||
| 20260506133440 | 0 | 49 | 0.0 | 0.0 | 0.02 | 0.62 | 0.08 | ||
| 20260506132927 | 0 | 49 | 0.0 | 0.0 | 0.02 | 0.62 | 0.08 | ||
| 20260506132452 | 0 | 49 | 0.0 | 0.0 | 0.01 | 0.61 | 0.07 | ||
| 20260506131958 | 0 | 49 | 0.0 | 0.0 | 0.01 | 0.61 | 0.07 | ||
| 20260506131424 | 0 | 49 | 0.0 | 0.0 | 0.00 | 0.60 | 0.06 | ||
| 20260506130931 | 0 | 49 | 0.0 | 0.0 | 0.00 | 0.60 | 0.06 | ||
| 20260506130459 | 0 | 49 | 0.0 | 0.0 | 0.00 | 0.60 | 0.06 | ||
| 20260506125945 | 0 | 49 | 0.0 | 0.0 | 0.00 | 0.60 | 0.06 | ||
| 20260506125431 | 0 | 49 | 0.0 | 0.0 | 0.01 | 0.60 | 0.06 | ||
| 20260506124938 | 0 | 49 | 0.0 | 0.0 | 0.01 | 0.60 | 0.06 | ||
| 20260506124429 | 0 | 49 | 0.0 | 0.0 | 0.01 | 0.60 | 0.06 | ||
| 20260506123935 | 0 | 49 | 0.0 | 0.0 | 0.01 | 0.60 | 0.06 | ||
| 20260506123442 | 0 | 49 | 0.0 | 0.0 | 0.01 | 0.60 | 0.06 | ||
| 20260506122930 | 0 | 49 | 0.0 | 0.0 | 0.01 | 0.60 | 0.06 | ||
| 20260506122434 | 0 | 49 | 0.0 | 0.0 | 0.01 | 0.60 | 0.06 | ||
| 20260506121940 | 0 | 49 | 0.0 | 0.0 | 0.02 | 0.60 | 0.06 | ||
| 20260506121430 | 0 | 49 | 0.0 | 0.0 | 0.02 | 0.60 | 0.06 | ||
| 20260506120934 | 0 | 49 | 0.0 | 0.0 | 0.02 | 0.60 | 0.06 | ||
| 20260506120437 | 0 | 49 | 0.0 | 0.0 | 0.02 | 0.60 | 0.06 | ||
| 20260506115926 | 0 | 49 | 0.0 | 0.0 | 0.02 | 0.60 | 0.06 | ||
| 20260506115453 | 0 | 49 | 0.0 | 0.0 | 0.01 | 0.59 | 0.05 | ||
| 20260506115001 | 0 | 49 | 0.0 | 0.0 | 0.01 | 0.59 | 0.05 | ||
| 20260506114427 | 0 | 49 | 0.0 | 0.0 | 0.01 | 0.59 | 0.05 | ||
| 20260506113934 | 0 | 49 | 0.0 | 0.0 | 0.02 | 0.59 | 0.05 | ||
| 20260506113442 | 0 | 49 | 0.0 | 0.0 | 0.02 | 0.59 | 0.05 | ||
| 20260506112929 | 0 | 49 | 0.0 | 0.0 | 0.02 | 0.59 | 0.05 | ||
| 20260506112437 | 0 | 49 | 0.0 | 0.0 | 0.02 | 0.59 | 0.05 | ||
| 20260506111945 | 0 | 49 | 0.0 | 0.0 | 0.01 | 0.58 | 0.04 | ||
| 20260506111433 | 0 | 49 | 0.0 | 0.0 | 0.01 | 0.58 | 0.04 | ||
| 20260506110930 | 0 | 49 | 0.0 | 0.0 | 0.02 | 0.58 | 0.04 | ||
| 20260506110457 | 0 | 49 | 0.0 | 0.0 | 0.02 | 0.58 | 0.04 | ||
| 20260506105943 | 0 | 49 | 0.0 | 0.0 | 0.02 | 0.58 | 0.04 | ||
| 20260506105430 | 0 | 49 | 0.0 | 0.0 | 0.02 | 0.58 | 0.04 | ||
| 20260506104934 | 0 | 49 | 0.0 | 0.0 | 0.02 | 0.58 | 0.04 | ||
| 20260506104442 | 0 | 49 | 0.0 | 0.0 | 0.02 | 0.58 | 0.04 | ||
| 20260506103927 | 0 | 49 | 0.0 | 0.0 | 0.01 | 0.57 | 0.03 | ||
| 20260506103434 | 0 | 49 | 0.0 | 0.0 | 0.02 | 0.57 | 0.03 | ||
| 20260506102941 | 0 | 49 | 0.0 | 0.0 | 0.02 | 0.57 | 0.03 | ||
| 20260506102428 | 0 | 49 | 0.0 | 0.0 | 0.02 | 0.57 | 0.03 | ||
| 20260506101953 | 0 | 50 | 0.0 | 0.0 | 0.02 | 0.57 | 0.03 | ||
| 20260506101442 | 0 | 50 | 0.0 | 0.0 | 0.02 | 0.57 | 0.03 | ||
| 20260506100949 | 0 | 50 | 0.0 | 0.0 | 0.01 | 0.56 | 0.02 | ||
| 20260506100435 | 0 | 50 | 0.0 | 0.0 | 0.02 | 0.56 | 0.02 | ||
| 20260506095944 | 0 | 50 | 0.0 | 0.0 | 0.02 | 0.56 | 0.02 | ||
| 20260506095428 | 0 | 51 | 0.0 | 0.0 | 0.02 | 0.56 | 0.02 | ||
| 20260506094934 | 0 | 51 | 0.0 | 0.0 | 0.02 | 0.56 | 0.02 | ||
| 20260506094443 | 0 | 51 | 0.0 | 0.0 | 0.02 | 0.56 | 0.02 | ||
| 20260506093930 | 0 | 51 | 0.0 | 0.0 | 0.02 | 0.56 | 0.02 | ||
| 20260506093436 | 0 | 51 | 0.0 | 0.0 | 0.01 | 0.55 | 0.01 | ||
| 20260506093001 | 0 | 51 | 0.0 | 0.0 | 0.01 | 0.55 | 0.01 | ||
| 20260506092427 | 0 | 52 | 0.0 | 0.0 | 0.01 | 0.55 | 0.01 | ||
| 20260506091935 | 0 | 52 | 0.0 | 0.0 | 0.01 | 0.55 | 0.01 | ||
| 20260506091443 | 0 | 52 | 0.0 | 0.0 | 0.01 | 0.55 | 0.01 | ||
| 20260506090928 | 0 | 52 | 0.0 | 0.0 | 0.01 | 0.55 | 0.01 | ||
| 20260506090435 | 0 | 52 | 0.0 | 0.0 | 0.00 | 0.54 | 0.00 | ||
| 20260506085942 | 0 | 52 | 0.0 | 0.0 | 0.00 | 0.54 | 0.00 | ||
| 20260506085428 | 0 | 52 | 0.0 | 0.0 | 0.00 | 0.54 | 0.00 | ||
| 20260506084936 | 0 | 52 | 0.0 | 0.0 | 0.00 | 0.54 | 0.00 | ||
| 20260506084444 | 0 | 52 | 0.0 | 0.0 | 0.00 | 0.54 | 0.00 | ||
| 20260506083930 | 0 | 52 | 0.0 | 0.0 | 0.00 | 0.54 | 0.00 | ||
| 20260506083435 | 0 | 52 | 0.0 | 0.0 | 0.00 | 0.54 | 0.00 | ||
| 20260506082942 | 0 | 52 | 0.0 | 0.0 | 0.00 | 0.54 | 0.00 | ||
| 20260506082429 | 0 | 52 | 0.0 | 0.0 | 0.00 | 0.54 | 0.00 | ||
| 20260506081933 | 0 | 52 | 0.0 | 0.0 | 0.00 | 0.54 | 0.00 | ||
| 20260506081442 | 0 | 52 | 0.0 | 0.0 | 0.00 | 0.54 | 0.00 | ||
| 20260506080928 | 0 | 52 | 0.0 | 0.0 | 0.00 | 0.54 | 0.00 | ||
| 20260506080436 | 0 | 52 | 0.0 | 0.0 | 0.00 | 0.54 | 0.00 | ||
| 20260506073431 | 0 | 52 | 0.0 | 2.6 | 0.00 | 0.54 | 0.00 | ||
| 20260506072939 | 0 | 17 | 0.0 | 1.7 | 0.00 | 0.54 | 0.00 | ||
| 20260506072427 | 0 | 21 | 0.0 | 0.0 | 0.00 | 0.54 | 0.00 | ||
| 20260506071932 | 0 | 21 | 0.0 | 0.0 | 0.00 | 0.54 | 0.00 | ||
| 20260506071445 | 0 | 21 | 0.0 | 0.0 | 0.00 | 0.54 | 0.00 | ||
| 20260506070934 | 0 | 20 | 0.0 | 0.0 | 0.00 | 0.54 | 0.00 | ||
| 20260506070441 | 0 | 20 | 0.0 | 0.0 | 0.00 | 0.54 | 0.00 | ||
| 20260506062455 | 0 | 21 | 0.0 | 1.7 | 0.00 | 0.54 | 0.00 | ||
| 20260506061941 | 0 | 21 | 0.0 | 0.0 | 0.00 | 0.54 | 0.00 | ||
| 20260506061426 | 0 | 21 | 0.0 | 0.0 | 0.00 | 0.54 | 0.00 | ||
| 20260506060931 | 0 | 21 | 0.0 | 0.0 | 0.00 | 0.54 | 0.00 | ||
| 20260506060439 | 0 | 21 | 0.0 | 0.0 | 0.00 | 0.54 | 0.00 | ||
| 20260506050932 | 0 | 21 | 0.0 | 0.0 | 0.00 | 0.54 | 0.00 | ||
| 20260506050440 | 0 | 21 | 0.0 | 0.0 | 0.00 | 0.54 | 0.00 | ||
| 20260506044938 | 0 | 21 | 0.0 | 0.0 | 0.00 | 0.54 | 0.00 | ||
| 20260506044445 | 0 | 21 | 0.0 | 0.0 | 0.00 | 0.54 | 0.00 | ||
| 20260506043929 | 0 | 21 | 0.0 | 0.0 | 0.00 | 0.54 | 0.00 | ||
| 20260506043434 | 0 | 21 | 0.0 | 0.0 | 0.00 | 0.54 | 0.00 | ||
| 20260506042940 | 0 | 21 | 0.0 | 0.0 | 0.00 | 0.54 | 0.00 | ||
| 20260506042428 | 0 | 21 | 0.0 | 0.0 | 0.00 | 0.54 | 0.00 | ||
| 20260506041935 | 0 | 21 | 0.0 | 0.0 | 0.00 | 0.54 | 0.00 | ||
| 20260506041444 | 0 | 21 | 0.0 | 0.0 | 0.00 | 0.54 | 0.00 | ||
| 20260506040956 | 0 | 25 | 0.0 | 0.0 | 0.00 | 0.54 | 0.54 | ||
| 20260506040422 | 0 | 25 | 0.0 | 0.0 | 0.00 | 0.54 | 0.54 | ||
| 20260506035927 | 0 | 35 | 0.0 | 0.0 | 0.00 | 0.54 | 0.54 | ||
| 20260506035435 | 0 | 35 | 0.0 | 0.0 | 0.00 | 0.54 | 0.54 | ||
| 20260506034941 | 0 | 35 | 0.0 | 0.0 | 0.00 | 0.54 | 0.54 | ||
| 20260506034430 | 0 | 35 | 0.0 | 0.0 | 0.00 | 0.54 | 0.54 | ||
| 20260506033933 | 0 | 35 | 0.0 | 0.0 | 0.00 | 0.54 | 0.54 | ||
| 20260506033442 | 0 | 35 | 0.0 | 1.7 | 0.00 | 0.54 | 0.54 | ||
| 20260506032949 | 0 | 35 | 0.0 | 1.7 | 0.00 | 0.54 | 0.54 | ||
| 20260506032436 | 0 | 38 | 0.0 | 0.0 | 0.00 | 0.54 | 0.54 | ||
| 20260506031942 | 0 | 38 | 0.0 | 0.0 | 0.00 | 0.54 | 0.54 | ||
| 20260506031430 | 0 | 38 | 0.0 | 0.0 | 0.00 | 0.54 | 0.54 | ||
| 20260506030934 | 0 | 38 | 0.0 | 0.0 | 0.00 | 0.54 | 0.54 | ||
| 20260506030422 | 0 | 38 | 0.0 | 0.0 | 0.00 | 0.54 | 0.54 | ||
| 20260506025956 | 0 | 38 | 0.0 | 0.0 | 0.00 | 0.54 | 0.54 | ||
| 20260506025444 | 0 | 38 | 0.0 | 0.0 | 0.00 | 0.54 | 0.54 | ||
| 20260506024947 | 0 | 38 | 0.0 | 0.0 | 0.00 | 0.54 | 0.54 | ||
| 20260506024432 | 0 | 38 | 0.0 | 0.0 | 0.00 | 0.54 | 0.54 | ||
| 20260506023938 | 0 | 38 | 0.0 | 0.0 | 0.00 | 0.54 | 0.54 | ||
| 20260506023424 | 0 | 38 | 0.0 | 0.0 | 0.00 | 0.54 | 0.54 | ||
| 20260506022951 | 0 | 38 | 0.0 | 0.0 | 0.00 | 0.54 | 0.54 | ||
| 20260506022437 | 0 | 38 | 0.0 | 0.0 | 0.00 | 0.54 | 0.54 | ||
| 20260506021946 | 0 | 38 | 0.0 | 0.0 | 0.00 | 0.54 | 0.54 | ||
| 20260506021501 | 0 | 38 | 0.0 | 0.0 | 0.00 | 0.54 | 0.54 | ||
| 20260506020945 | 0 | 38 | 0.0 | 0.0 | 0.00 | 0.54 | 0.54 | ||
| 20260506020433 | 0 | 38 | 0.0 | 0.0 | 0.00 | 0.54 | 0.54 | ||
| 20260506020007 | 0 | 38 | 0.0 | 0.0 | 0.00 | 0.54 | 0.54 | ||
| 20260506015432 | 0 | 37 | 0.0 | 0.0 | 0.00 | 0.54 | 0.54 | ||
| 20260506014956 | 0 | 37 | 0.0 | 0.0 | 0.00 | 0.54 | 0.54 | ||
| 20260506014443 | 0 | 20 | 0.0 | 0.0 | 0.00 | 0.54 | 0.54 | ||
| 20260506013928 | 0 | 20 | 0.0 | 2.6 | 0.00 | 0.54 | 0.54 | ||
| 20260506013435 | 0 | 44 | 0.9 | 2.6 | 0.00 | 0.54 | 0.54 | ||
| 20260506012943 | 0 | 91 | 0.9 | 2.6 | 0.00 | 0.54 | 0.54 | ||
| 20260506012450 | 0 | 29 | 0.0 | 0.9 | 0.00 | 0.54 | 0.54 | ||
| 20260506011932 | 0 | 28 | 0.0 | 3.5 | 0.00 | 0.54 | 0.54 | ||
| 20260506011442 | 0 | 341 | 0.9 | 3.5 | 0.00 | 0.54 | 0.54 | ||
| 20260506010947 | 0 | 347 | 0.0 | 3.5 | 0.00 | 0.54 | 0.54 | ||
| 20260506010500 | 0 | 20 | 1.7 | 3.5 | 0.01 | 0.54 | 0.54 | ||
| 20260506005946 | 0 | 325 | 0.0 | 0.0 | 0.02 | 0.54 | 0.54 | ||
| 20260506005434 | 0 | 335 | 0.0 | 2.6 | 0.03 | 0.54 | 0.54 | ||
| 20260506004940 | 0 | 335 | 0.0 | 2.6 | 0.04 | 0.54 | 0.54 | ||
| 20260506004431 | 0 | 306 | 0.0 | 4.3 | 0.05 | 0.54 | 0.54 | ||
| 20260506003934 | 0 | 347 | 0.9 | 5.2 | 0.06 | 0.54 | 0.54 | ||
| 20260506003459 | 0 | 354 | 1.7 | 5.2 | 0.06 | 0.54 | 0.54 | ||
| 20260506002924 | 0 | 16 | 0.9 | 5.2 | 0.06 | 0.54 | 0.54 | ||
| 20260506002451 | 0 | 344 | 2.6 | 5.2 | 0.06 | 0.54 | 0.54 | ||
| 20260506001956 | 0 | 354 | 1.7 | 3.5 | 0.06 | 0.54 | 0.54 | ||
| 20260506001442 | 0 | 339 | 0.9 | 3.5 | 0.06 | 0.54 | 0.54 | ||
| 20260506000948 | 0 | 339 | 1.7 | 3.5 | 0.06 | 0.54 | 0.54 | ||
| 20260506000438 | 0 | 194 | 0.0 | 0.0 | 0.05 | 0.53 | 0.53 | ||
| 20260505235942 | 0 | 194 | 0.0 | 0.0 | 0.04 | 0.52 | 0.52 | ||
| 20260505235427 | 0 | 194 | 0.0 | 0.0 | 0.03 | 0.51 | 0.51 | ||
| 20260505234935 | 0 | 191 | 0.0 | 0.0 | 0.02 | 0.50 | 0.50 | ||
| 20260505234443 | 0 | 168 | 0.0 | 0.0 | 0.00 | 0.48 | 0.48 | ||
| 20260505233930 | 0 | 164 | 0.0 | 0.0 | 0.00 | 0.48 | 0.48 | ||
| 20260505233439 | 0 | 164 | 0.0 | 0.0 | 0.00 | 0.48 | 0.48 | ||
| 20260505233000 | 0 | 174 | 0.0 | 0.0 | 0.00 | 0.48 | 0.48 | ||
| 20260505232428 | 0 | 177 | 0.0 | 0.0 | 0.00 | 0.48 | 0.48 | ||
| 20260505231936 | 0 | 189 | 0.0 | 0.0 | 0.00 | 0.48 | 0.48 | ||
| 20260505231426 | 0 | 210 | 0.0 | 0.0 | 0.00 | 0.48 | 0.48 | ||
| 20260505230954 | 0 | 210 | 0.0 | 0.0 | 0.00 | 0.48 | 0.48 | ||
| 20260505230441 | 0 | 210 | 0.0 | 0.9 | 0.00 | 0.48 | 0.48 | ||
| 20260505225928 | 0 | 209 | 0.0 | 0.9 | 0.00 | 0.48 | 0.48 | ||
| 20260505225436 | 0 | 204 | 0.0 | 2.6 | 0.00 | 0.48 | 0.48 | ||
| 20260505224943 | 0 | 204 | 0.9 | 2.6 | 0.00 | 0.48 | 0.48 | ||
| 20260505224452 | 0 | 174 | 0.0 | 2.6 | 0.00 | 0.48 | 0.48 | ||
| 20260505223934 | 0 | 226 | 0.0 | 2.6 | 0.00 | 0.48 | 0.48 | ||
| 20260505223442 | 0 | 192 | 0.0 | 2.6 | 0.00 | 0.48 | 0.48 | ||
| 20260505222951 | 0 | 189 | 0.0 | 3.5 | 0.00 | 0.48 | 0.48 | ||
| 20260505222434 | 0 | 190 | 0.9 | 3.5 | 0.00 | 0.48 | 0.48 | ||
| 20260505221938 | 0 | 175 | 0.0 | 4.3 | 0.00 | 0.48 | 0.48 | ||
| 20260505221424 | 0 | 199 | 0.9 | 6.1 | 0.00 | 0.48 | 0.48 | ||
| 20260505220931 | 0 | 198 | 0.9 | 6.1 | 0.00 | 0.48 | 0.48 | ||
| 20260505220438 | 0 | 214 | 2.6 | 5.2 | 0.00 | 0.48 | 0.48 | ||
| 20260505215927 | 0 | 169 | 0.9 | 2.6 | 0.00 | 0.48 | 0.48 | ||
| 20260505215431 | 0 | 170 | 0.0 | 3.5 | 0.00 | 0.48 | 0.48 | ||
| 20260505214939 | 0 | 165 | 0.0 | 3.5 | 0.00 | 0.48 | 0.48 | ||
| 20260505214445 | 0 | 187 | 0.9 | 3.5 | 0.01 | 0.48 | 0.48 | ||
| 20260505213931 | 0 | 185 | 0.0 | 0.9 | 0.02 | 0.48 | 0.48 | ||
| 20260505213438 | 0 | 164 | 0.0 | 0.9 | 0.04 | 0.48 | 0.48 | ||
| 20260505212944 | 0 | 181 | 0.0 | 3.5 | 0.06 | 0.48 | 0.48 | ||
| 20260505212432 | 0 | 189 | 0.9 | 3.5 | 0.08 | 0.48 | 0.48 | ||
| 20260505211958 | 0 | 158 | 0.0 | 1.7 | 0.10 | 0.48 | 0.48 | ||
| 20260505211425 | 0 | 163 | 0.0 | 3.5 | 0.12 | 0.48 | 0.48 | ||
| 20260505210936 | 0 | 211 | 0.9 | 3.5 | 0.14 | 0.48 | 0.48 | ||
| 20260505210438 | 0 | 166 | 0.9 | 7.0 | 0.17 | 0.48 | 0.48 | ||
| 20260505205925 | 0 | 208 | 2.6 | 7.0 | 0.20 | 0.48 | 0.48 | ||
| 20260505205432 | 0 | 226 | 0.9 | 4.3 | 0.23 | 0.48 | 0.48 | ||
| 20260505205000 | 0 | 285 | 0.9 | 3.5 | 0.26 | 0.48 | 0.48 | ||
| 20260505204427 | 0 | 264 | 0.0 | 6.1 | 0.28 | 0.47 | 0.47 | ||
| 20260505203930 | 0 | 224 | 0.9 | 7.0 | 0.29 | 0.45 | 0.45 | ||
| 20260505203437 | 0 | 219 | 2.6 | 7.0 | 0.28 | 0.44 | 0.44 | ||
| 20260505202944 | 0 | 170 | 0.0 | 1.7 | 0.26 | 0.42 | 0.42 | ||
| 20260505202453 | 0 | 183 | 0.0 | 1.7 | 0.24 | 0.40 | 0.40 |